STARLINK-11505, 62469

Orbit data source: Space-Track

STARLINK-11505, 62469 is a payload satellite owned by SpaceX/Seattle (US) in LEO that was launched on Tue, 31 Dec 2024 UTC via an FALCON 9 launch vehicle from the Air Force Eastern Test Range (AFETR). Payload-class satellites include a variety of spacecraft equipped with specific instruments for various scientific and technological missions. These include communications satellites like Starlink; space stations such as the ISS; scientific satellites like the Hubble; Earth observation satellites from companies like Planet Labs, Umbra, and HawkEye 360; GPS; miniature CubeSats for education and research; and military/defense satellites.

Loading next visibility...
Identifier
62469, 2024-254H
Orbit
LEO
Country
Flag of USUS
Related business
Manufacturer
SpaceX/Seattle
Mission
Operational Commercial Communications
Bus & Motor
STARLINK V2MD, Unknown motor
Mass
960 kg wet, ~910 kg dry
Launch date (UTC)
2024-12-31 (1 year ago)
Launch vehicle
FALCON 9
Launch site
Air Force Eastern Test Range (AFETR)
Object type
Payload
Rocket body
Debris
Shape & HBR
Box + 2 Pan, 18.1 m
Radar Cross Section
36.964 m², Large (>1 m²)

Expand to show TLE details & history
Last TLE update: 7 hours ago

TLE from 7 hours ago
0 STARLINK-11505
1 62469U 24254H   26035.44162056  .00305668  00000-0  22925-2 0  9998
2 62469  42.9988  63.2565 0001351 270.6795  89.3918 15.70908429 64162
Epoch: 2026-02-04T10:35Z
TLE epoch observation values (Epoch: 2026-02-04T10:35:56.016Z)
Latitude
-0°
Longitude
129.66495°
Altitude
356.061 km
Speed
7.697 km/s
True Right ascension
04h 13m 01s
True Declination
0° 00' 00"
Sunlit
Object was in daylight at epoch
Visualization orbit readout
Latitude
Unknown
Longitude
Unknown
Altitude
Unknown
Speed
Unknown
Apparent Right ascension
Unknown
Apparent Declination
Unknown
Sunlit
N/A
Visualization observer readout
Local Sidereal Time
19:26:36
Azimuth
Unknown
Elevation
Unknown
Doppler factor
Unknown
Orbital elements
Apogee altitude
359.191 km
Perigee altitude
357.371 km
Semi-major axis
6,736.418 km
Eccentricity
0.00014
Inclination
42.9988°
RAAN
63.2565°
Arg. of periapsis
270.6795°
True anomaly
89.40728°
Mean anomaly
89.3918°
Eccentric anomaly
89.39954°
Mean motion
3.92554 °/min
Orbital period
91.71 mins
BSTAR
0.0022925
Loading maneuver chart data...
Computing Atmospheric mass density...
Loading historical data...
Loading historical data...
Loading historical data...
Loading historical data...
Loading historical data...
Loading historical data...
Loading historical data...

Documentation

Showing up to 5 results
|